sat.trackr.live / text

‹ back to catalog

ONEWEB-0234

NORAD 48783 · 2021-045S

PAYLOAD ACTIVE UNKNOWN

§ Identity

Operator
Country
UK
Launch date
2021-05-28
Launch site
VOSTO
Launch vehicle
Mass (kg)
RCS (m²)

Purposes: comms

External: N2YO · Heavens-Above · Gunter

§ Orbital elements

Epoch: 2026-09-19T22:17:34.569312Z

Period
109.46 min
Inclination
87.8999°
Eccentricity
0.0001289
Mean motion
13.15546800 rev/d
Perigee alt
1,200.8 km
Apogee alt
1,202.8 km
Semi-major
7,579.9 km
B*
5.3223e-4
RAAN
240.2966°
Arg perigee
99.7036°
Mean anomaly
260.4240°
Rev number
25,693

§ Raw data

ONEWEB-02341 48783U 21045S   26262.92887233  .00000213  00000+0  53223-3 0  99952 48783  87.8999 240.2966 0001289  99.7036 260.4240 13.15546800256931

JSON: /api/v1/satellites/48783 · /tle

For live sub-satellite position, see the globe view (requires WebGL).

§ Visibility from observer

Set your observer location to see the next 7 days of passes ≥ 10°. The values pass through the URL so the page stays shareable.

No JS? Fill the form by hand. The geolocation button needs JavaScript.